Hourly Weather Roundup
Issued by NWS Central Illinois

Home | Current Version | Previous Version | Text Only | Print | Product List | Glossary On
Versions: 1 2 3 4 5 6 7 8 9 10 11 12 13 14 15 16 17 18 19 20 21 22 23 24 25 26 27 28 29 30 31 32 33 34 35 36 37 38 39 40 41 42 43 44 45 46 47 48 49 50
000
NZUS43 KILX 250110
HWRILX

AREA WEATHER ROUNDUP
NATIONAL WEATHER SERVICE, LINCOLN IL
800 PM CDT FRI OCT 24 2014


CITY           SKY/WX    TMP DP  RH WIND       PRES   REMARKS
BLOOMINGTON    PTCLDY    56  54  93 S10       29.99F
CHAMPAIGN      MOCLDY    52  50  93 S7        30.01S FOG
DECATUR        MOCLDY    56  52  86 S7        30.01S
FLORA          PTCLDY    54  50  86 CALM      30.04S
GALESBURG      CLOUDY    62  54  74 S5        29.95R
JACKSONVILLE   PTCLDY    65  52  63 S8        29.96F
LACON          MOCLDY    58  49  72 S3        29.95F
LAWRENCEVILLE  PTCLDY    55  50  83 S6        30.03S
LITCHFIELD     PTCLDY    59  48  68 S7        30.00F
$$


CITY           SKY/WX    TMP DP  RH WIND       PRES   REMARKS
LINCOLN        MOCLDY    57  53  87 S5        29.97S
MACOMB         MOCLDY    58  52  79 S3        29.97S
MATTOON        MOCLDY    58  52  80 CALM      30.02R
MT CARMEL AP   CLEAR     57  52  82 CALM      30.03S
OLNEY-NOBLE AP PTCLDY    54  50  87 CALM      30.04S
PARIS          CLEAR     53  51  92 CALM      30.03S
PEORIA         CLOUDY    63  52  67 S6        29.97R
PONTIAC        MOCLDY    59  52  78 S6        29.98S
RANTOUL        PTCLDY    55  53  91 SW5       30.00S
ROBINSON       CLEAR     57  52  83 CALM      30.04R
SPRINGFIELD    CLEAR     61  51  70 S7        29.98S
TAYLORVILLE    CLEAR     55  52  88 S6        30.00S
$$

...REGIONAL REPORTS...


CITY           SKY/WX    TMP DP  RH WIND       PRES   REMARKS
CHICAGO O`HARE MOCLDY    61  45  55 S7        29.95R
KANKAKEE       MOCLDY    55  46  72 SW8       29.98R
MOLINE         CLOUDY    63  57  81 W8        29.95R
MOUNT VERNON   CLEAR     52  46  82 CALM      30.04F
PITTSFIELD     MOCLDY    64  53  68 S5        29.97S
QUINCY         MOCLDY    64  56  75 S10       29.94S
ROCKFORD       CLOUDY    58  47  66 S3        29.96R
$$


CITY           SKY/WX    TMP DP  RH WIND       PRES   REMARKS
BURLINGTON     MOCLDY    59  56  89 N3        29.94R
CEDAR RAPIDS   MOCLDY    57  57 100 S5        29.94R FOG
DES MOINES     MOCLDY    60  58  92 S7        29.93R FOG
KIRKSVILLE     CLEAR     65  60  84 SW6       29.95R
OTTUMWA        MOCLDY    63  59  87 SW6       29.94S
ST LOUIS       MOCLDY    69  49  48 S5        30.00S
$$


CITY           SKY/WX    TMP DP  RH WIND       PRES   REMARKS
TERRE HAUTE    CLEAR     56  50  80 CALM      30.02S
EVANSVILLE     CLEAR     57  52  83 CALM      30.05S
INDIANAPOLIS   PTCLDY    56  49  77 S7        30.01F
LAFAYETTE      CLEAR     52  49  89 CALM      30.00S
MADISON        CLOUDY    58  50  75 CALM      29.93S
MILWAUKEE      CLOUDY    54  49  83 S6        29.94S HAZE
$$





USA.gov is the U.S. government's official web portal to all federal, state and local government web resources and services.